Weather in Severny

Russia / Udmurt Republic     56°27′52″N   53°44′17″E
temp.,
°C
wind,
m/s
gust,
m/s
humid.,
%
clouds,
%
prec.,
mm/h
press.,
hPa
HPBL,
m
24 may, tue
tue2401:00+3sw338598 0.0 100250
04:00+2ssw2389100 0.0 100361
07:00+5sw3683100 0.1 1004642
10:00+8sw575873 0.1 10051525
13:00+11sw574682 0.0 10062053
16:00+12ssw574966 0.0 10071711
19:00+11ssw2463100 0.0 1007108
22:00+7sse1173100 0.0 100810
25 may, wed
wed2501:00+5ene1181100 0.0 100810
04:00+4ese2283100 0.0 100713
07:00+9s2375100 0.0 1007233
10:00+13ssw2258100 0.0 1006995
13:00+15ssw224997 0.1 10061574
16:00+13w2364100 1.0 1006879
19:00+9wnw1294100 1.2 1006101
22:00+7w239763 3.0 1006129
26 may, thu
thu2601:00+5w71194100 1.8 1008729
04:00+5sw269393 2.9 1009477
07:00+6wsw58825 0.0 1010480
10:00+8wsw787373 0.1 10111142
13:00+10sw7961100 0.1 10121686
16:00+10sw796444 0.6 10131424
19:00+9ssw597317 0.3 1012740
22:00+6s388693 0.4 1012175
27 may, fri
fri2701:00+5s31090100 0.0 1012217
04:00+5s41185100 0.0 1011291
07:00+7s51487100 0.9 1010549
10:00+10s61476100 1.7 1009778
13:00+14s71269100 0.1 10071361
16:00+11s81586100 1.3 10071006
19:00+12s8148589 0.2 1006855
22:00+11s7149099 0.3 1006827
28 may, sat
sat2801:00+9sse5129657 0.1 1005414
04:00+10sse4998100 1.1 1005456
07:00+11ssw479491 0.3 1007412
10:00+13ssw5680100 0.3 1008852
13:00+14ssw5780100 0.1 1010956
16:00+14ssw5877100 0.1 10101110
19:00+15s51072100 0.1 1009522
22:00+14s71671100 0.1 1008693